星链-30091 (STARLINK-30091 )

导读

STARLINK-30091是美国SpaceX公司星链(Starlink)星座中的一颗卫星,于2023年7月28日发射升空,归属美国。星链项目旨在构建全球卫星互联网星座,为全球提供高速低延迟的互联网接入服务,该卫星的发射进一步扩充了星链星座的在轨卫星规模,推动星座组网进程。

基本信息
目录编号:
57463
目录名称:
STARLINK-30091
国际标识:
2023-107G
轨道中心:
EARTH
卫星名称:
星链-30091
卫星全名:
星链-30091 (STARLINK-30091 )
卫星状态:
在轨 (已飞行1056 天)
发射日期:
2023-07-28 UTC
国别 :
美国 (US)
星等 :
--
轨道信息
数据来源 国际轨道数据
星历时间: 2026-06-18T04:49:16+0800
17小时前
查看轨道信息
半长轴: 6632.726km
偏心率: 0.0004538
轨道倾角: 42.997°
近地点辐角 196.414°
升交点赤经 119.309°
平近点角 163.659°
近地点: 251.579km
远地点: 257.599km
周期: 89.598分钟
每日圈数: 16.071806
详细信息
固有亮度:
5
最大亮度:
0.3
卫星平台:
Starlink v2.0 mini
覆盖范围:
全球
运营商:
太空探索技术公司
运营商所在国:
美国
制造商(研发单位):
太空探索技术公司
制造商所在国:
美国
使用方式:
暂无
卫星简介
星链(Starlink)计划是由太空探索技术公司(SpaceX)提出的一个巨型低轨卫星互联网星座项目,计划在2019年至2024年间在太空搭建由约1.2万颗卫星组成的“星链”网络,其中1584颗将部署在地球上空550千米处的近地轨道,并从2020年开始工作。该卫星仍在工作。
2D轨道图
3D轨道图
轨道高度分析图
轨道倾角分析图
轨道综合分析图
查看轨道综合分析图